Time,TemperatureF,DewpointF,PressureIn,WindDirection,WindDirectionDegrees,WindSpeedMPH,WindSpeedGustMPH,Humidity,HourlyPrecipIn,Conditions,Clouds,dailyrainin,SolarRadiationWatts/m^2,SoftwareType,DateUTC
2013-03-14 00:01:00,30.7,9.8,30.55,NNW,342,4.0,0.0,41,0.00,,,0.00,0,WeatherHawk,2013-03-14 04:01:00,
2013-03-14 00:02:00,30.6,9.2,30.55,SW,236,3.0,0.0,40,0.00,,,0.00,0,WeatherHawk,2013-03-14 04:02:00,
2013-03-14 00:03:00,30.6,9.2,30.55,NNW,340,5.0,0.0,40,0.00,,,0.00,0,WeatherHawk,2013-03-14 04:03:00,
2013-03-14 00:08:00,30.6,8.0,30.55,SW,228,7.0,0.0,38,0.00,,,0.00,1,WeatherHawk,2013-03-14 04:08:00,
2013-03-14 00:10:00,30.5,8.0,30.54,SW,214,4.0,0.0,38,0.00,,,0.00,0,WeatherHawk,2013-03-14 04:10:00,
2013-03-14 00:15:00,30.1,9.8,30.55,WSW,237,4.0,-999.0,42,0.00,,,0.00,0,WeatherHawk,2013-03-14 04:15:00,
2013-03-14 00:20:00,29.4,12.6,30.55,WSW,254,7.0,0.0,49,0.00,,,0.00,0,WeatherHawk,2013-03-14 04:20:00,
2013-03-14 00:25:00,29.2,12.0,30.55,West,281,6.0,-999.0,48,0.00,,,0.00,0,WeatherHawk,2013-03-14 04:25:00,
2013-03-14 00:30:00,28.8,14.7,30.56,WSW,253,3.0,0.0,55,0.00,,,0.00,0,WeatherHawk,2013-03-14 04:30:00,
2013-03-14 00:35:00,29.1,15.3,30.56,West,260,6.0,-999.0,56,0.00,,,0.00,0,WeatherHawk,2013-03-14 04:35:00,
2013-03-14 00:40:00,29.1,14.6,30.55,WSW,247,4.0,0.0,54,0.00,,,0.00,0,WeatherHawk,2013-03-14 04:40:00,
2013-03-14 00:45:00,29.3,13.4,30.55,SW,231,5.0,0.0,51,0.00,,,0.00,0,WeatherHawk,2013-03-14 04:45:00,
2013-03-14 00:50:00,29.4,13.1,30.55,NW,325,4.0,0.0,50,0.00,,,0.00,0,WeatherHawk,2013-03-14 04:50:00,
2013-03-14 00:55:00,29.5,11.8,30.56,SW,214,2.0,0.0,47,0.00,,,0.00,1,WeatherHawk,2013-03-14 04:55:00,
2013-03-14 01:00:00,29.5,11.3,30.55,NNW,327,7.0,0.0,46,0.00,,,0.00,0,WeatherHawk,2013-03-14 05:00:00,
2013-03-14 01:05:00,29.1,11.9,30.55,WSW,251,5.0,0.0,48,0.00,,,0.00,0,WeatherHawk,2013-03-14 05:05:00,
2013-03-14 01:10:00,28.8,13.4,30.56,ENE,65,5.0,-999.0,52,0.00,,,0.00,0,WeatherHawk,2013-03-14 05:10:00,
2013-03-14 01:15:00,28.5,14.8,30.56,WSW,245,0.0,0.0,56,0.00,,,0.00,0,WeatherHawk,2013-03-14 05:15:00,
2013-03-14 01:20:00,28.2,15.4,30.56,WSW,248,2.0,0.0,58,0.00,,,0.00,0,WeatherHawk,2013-03-14 05:20:00,
2013-03-14 01:25:00,28.2,16.5,30.57,WSW,248,4.0,0.0,61,0.00,,,0.00,0,WeatherHawk,2013-03-14 05:25:00,
2013-03-14 01:30:00,28.0,16.7,30.57,West,272,1.0,0.0,62,0.00,,,0.00,0,WeatherHawk,2013-03-14 05:30:00,
2013-03-14 01:35:00,28.0,17.1,30.57,West,271,0.0,0.0,63,0.00,,,0.00,0,WeatherHawk,2013-03-14 05:35:00,
2013-03-14 01:40:00,28.2,17.3,30.57,West,272,1.0,0.0,63,0.00,,,0.00,1,WeatherHawk,2013-03-14 05:40:00,
2013-03-14 01:45:00,28.0,17.1,30.59,WSW,238,2.0,-999.0,63,0.00,,,0.00,0,WeatherHawk,2013-03-14 05:45:00,
2013-03-14 01:50:00,28.3,16.9,30.57,West,269,2.0,0.0,62,0.00,,,0.00,0,WeatherHawk,2013-03-14 05:50:00,
2013-03-14 01:55:00,28.2,16.5,30.57,SW,229,0.0,0.0,61,0.00,,,0.00,1,WeatherHawk,2013-03-14 05:55:00,
2013-03-14 02:00:00,28.2,16.1,30.58,WSW,250,0.0,0.0,60,0.00,,,0.00,1,WeatherHawk,2013-03-14 06:00:00,
2013-03-14 02:05:00,28.3,15.8,30.58,West,281,0.0,0.0,59,0.00,,,0.00,0,WeatherHawk,2013-03-14 06:05:00,
2013-03-14 02:10:00,28.4,15.9,30.58,WNW,288,2.0,0.0,59,0.00,,,0.00,0,WeatherHawk,2013-03-14 06:10:00,
2013-03-14 02:15:00,28.0,15.2,30.57,WSW,253,0.0,0.0,58,0.00,,,0.00,1,WeatherHawk,2013-03-14 06:15:00,
2013-03-14 02:20:00,28.3,15.0,30.57,WSW,249,0.0,0.0,57,0.00,,,0.00,0,WeatherHawk,2013-03-14 06:20:00,
2013-03-14 02:25:00,28.3,14.6,30.57,SW,226,0.0,-999.0,56,0.00,,,0.00,0,WeatherHawk,2013-03-14 06:25:00,
2013-03-14 02:30:00,28.3,14.3,30.58,SW,223,0.0,0.0,55,0.00,,,0.00,0,WeatherHawk,2013-03-14 06:30:00,
2013-03-14 02:35:00,28.4,13.9,30.58,WSW,246,0.0,-999.0,54,0.00,,,0.00,0,WeatherHawk,2013-03-14 06:35:00,
2013-03-14 02:40:00,28.7,13.8,30.58,WNW,290,1.0,0.0,53,0.00,,,0.00,1,WeatherHawk,2013-03-14 06:40:00,
2013-03-14 02:45:00,28.7,12.8,30.58,WNW,290,0.0,-999.0,51,0.00,,,0.00,0,WeatherHawk,2013-03-14 06:45:00,
2013-03-14 02:50:00,28.5,12.7,30.58,West,276,0.0,-999.0,51,0.00,,,0.00,0,WeatherHawk,2013-03-14 06:50:00,
2013-03-14 02:55:00,28.6,12.8,30.57,WSW,257,0.0,-999.0,51,0.00,,,0.00,1,WeatherHawk,2013-03-14 06:55:00,
2013-03-14 03:00:00,28.3,12.5,30.58,West,276,0.0,0.0,51,0.00,,,0.00,0,WeatherHawk,2013-03-14 07:00:00,
2013-03-14 03:05:00,28.6,11.9,30.58,West,260,3.0,0.0,49,0.00,,,0.00,0,WeatherHawk,2013-03-14 07:05:00,
2013-03-14 03:10:00,28.3,11.2,30.58,SW,221,0.0,0.0,48,0.00,,,0.00,0,WeatherHawk,2013-03-14 07:10:00,
2013-03-14 03:15:00,28.8,11.6,30.57,West,270,4.0,-999.0,48,0.00,,,0.00,0,WeatherHawk,2013-03-14 07:15:00,